AEHF-4 (USA 288)

Last updated on Wed Sep 09 2026 00:03:02 GMT+0000 (Coordinated Universal Time)

1 43651U 18079A 26251.50315554 -.00000294 00000+0 00000+0 0 9992 2 43651 1.4203 357.6071 0068653 1.1105 102.4162 1.00268686 29134
UTC large
Height (km)
Speed (km/s)
/
Latitude / Longitude
Inclination (degrees)
Orbital Period (minutes)
Azimuth
Elevation
Range (km)
Doppler Factor

Next 0 passes for location: London (51.5072 / 0.1276)

No passes found over London.
AEHF-4 (USA 288)